Location: Warszawa
(52.2500°N, 21.0000°E)
Time: 18:57:14
(UTC+01:00)

Tiros 1 despin weight - All Passes

Search period start: 07 February 2023 00:00
Search period end: 17 February 2023 00:00
Orbit: 589 x 636 km, 48.2° (Epoch: 06 February)

Date Brightness Start Highest point End Pass type
(mag) Time Alt. Az. Time Alt. Az. Time Alt. Az.
07 Feb - 13:50:57 10° S 13:53:49 16° SE 13:56:41 10° ESE daylight
07 Feb - 15:30:12 10° SW 15:34:29 39° SSE 15:38:43 10° E daylight
07 Feb - 17:11:06 10° WSW 17:15:32 51° S 17:19:54 10° ESE visible
07 Feb - 18:52:27 10° W 18:56:31 33° SSW 19:00:30 10° SE visible
07 Feb - 20:35:26 10° WSW 20:36:58 12° SW 20:38:29 10° SSW visible
08 Feb - 14:04:29 10° SSW 14:08:12 24° SSE 14:11:52 10° E daylight
08 Feb - 15:44:38 10° WSW 15:49:03 47° S 15:53:24 10° E daylight
08 Feb - 17:25:45 10° W 17:30:08 47° S 17:34:27 10° ESE visible
08 Feb - 19:07:19 10° W 19:10:57 24° SSW 19:14:32 10° SSE visible
09 Feb - 12:40:26 10° SSE 12:42:09 12° SE 12:43:52 10° ESE daylight
09 Feb - 14:18:31 10° SW 14:22:38 33° SSE 14:26:44 10° E daylight
09 Feb - 15:59:11 10° WSW 16:03:38 51° S 16:08:03 10° ESE daylight
09 Feb - 17:40:26 10° W 17:44:41 39° SSW 17:48:53 10° SE visible
09 Feb - 19:22:31 10° WSW 19:25:19 16° SW 19:28:05 10° S visible
10 Feb - 12:53:14 10° S 12:56:27 19° SE 12:59:39 10° ESE daylight
10 Feb - 14:32:49 10° SW 14:37:10 42° SSE 14:41:28 10° E daylight
10 Feb - 16:13:47 10° W 16:18:14 51° S 16:22:38 10° ESE daylight
10 Feb - 17:55:12 10° W 17:59:11 30° SSW 18:03:06 10° SE visible
11 Feb - 13:06:57 10° SSW 13:10:50 27° SSE 13:14:41 10° E daylight
11 Feb - 14:47:16 10° WSW 14:51:43 49° S 14:56:07 10° E daylight
11 Feb - 16:28:26 10° W 16:32:49 45° SSW 16:37:08 10° ESE daylight
11 Feb - 18:10:07 10° W 18:13:35 22° SSW 18:17:01 10° SSE visible
12 Feb - 11:42:21 10° S 11:44:43 14° SE 11:47:05 10° ESE daylight
12 Feb - 13:21:03 10° SW 13:25:17 36° SSE 13:29:29 10° E daylight
12 Feb - 15:01:49 10° WSW 15:06:18 52° S 15:10:45 10° ESE daylight
12 Feb - 16:43:07 10° W 16:47:20 37° SSW 16:51:30 10° SE daylight
12 Feb - 18:25:28 10° WSW 18:27:54 14° SW 18:30:19 10° S visible
13 Feb - 11:55:32 10° SSW 11:59:01 21° SSE 12:02:29 10° E daylight
13 Feb - 13:35:23 10° WSW 13:39:48 44° SSE 13:44:10 10° E daylight
13 Feb - 15:16:25 10° W 15:20:53 50° S 15:25:18 10° ESE daylight
13 Feb - 16:57:53 10° W 17:01:47 28° SSW 17:05:37 10° SSE daylight
14 Feb - 12:09:22 10° SW 12:13:24 29° SSE 12:17:25 10° E daylight
14 Feb - 13:49:51 10° WSW 13:54:21 50° S 13:58:48 10° E daylight
14 Feb - 15:31:04 10° W 15:35:26 43° SSW 15:39:45 10° ESE daylight
14 Feb - 17:12:53 10° W 17:16:09 19° SSW 17:19:23 10° SSE daylight
15 Feb - 10:44:24 10° S 10:47:14 16° SE 10:50:02 10° ESE daylight
15 Feb - 12:23:33 10° SW 12:27:51 39° SSE 12:32:09 10° E daylight
15 Feb - 14:04:25 10° WSW 14:08:55 52° S 14:13:22 10° ESE daylight
15 Feb - 15:45:45 10° W 15:49:55 34° SSW 15:54:02 10° SE daylight
15 Feb - 17:28:28 10° WSW 17:30:24 13° SW 17:32:21 10° SSW visible
16 Feb - 10:57:50 10° SSW 11:01:32 24° SSE 11:05:13 10° E daylight
16 Feb - 12:37:55 10° WSW 12:42:22 47° S 12:46:48 10° E daylight
16 Feb - 14:19:00 10° W 14:23:29 48° S 14:27:53 10° ESE daylight
16 Feb - 16:00:33 10° W 16:04:20 25° SSW 16:08:03 10° SSE daylight
